www.pogodaiklimat.ru

Погода и климат >> Архив погоды >> Россия >> Красноярский край >> Тасеево


ПОГОДА в Тасеево

  • Прогноз погоды в Тасеево
  • Монитор погоды в Тасеево

АРХИВ ПОГОДЫ в Тасеево

Время (UTC), дата Ветер
(напр.,м/с)
 
Видим.   Явления Облачность Т
(С)
Тd
(С)
f
(%)
Тe
(С)
Тes
(С)
Комфортность P
(гПа)
Po
(гПа)
Тmin
(С)
Tmax
(С)
R
(мм)
R24
(мм)
S
(см)
00 14.04 СЗ 5 20 км 10/10 300 м
[Frnb]
+0.6 -0.2 94 -6 -6 1007.3 986.5 +0.4 4
03 14.04 З 5
{11}
20 км {ливн. осадки} 10/10 300 м
[Cb cap]
+1.6 -2.4 75 -4 -4 1008.0 987.3
06 14.04 СЗ 7-11
{12}
20 км {ливн. осадки} 8/8 600 м
[Cb cap]
+3.4 -6.2 49 -2 -1 1008.4 987.7
09 14.04 СЗ 6
{13}
20 км 10/8 300 м
[Cb cap Ci fib]
+3.7 -8.8 40 -1 -1 1009.5 988.9
12 14.04 СЗ 5
{12}
20 км 10/6 300 м
[Cb cap Ac cast Ci fib]
+2.3 -8.6 44 -2 -2 1011.0 990.3 +4.6 0.0
15 14.04 СЗ 3
{11}
20 км 3/1 1000 м
[Sc Ac lent Ci fib]
-1.0 -5.8 70 -6 -6 1012.3 991.3
18 14.04 СЗ 2 20 км 3/0
[Ci fib]
-2.5 -7.6 68 -6 -6 1012.4 991.3
21 14.04 СЗ 2 20 км 10/0
[Ci sp]
-3.3 -8.2 69 -7 -7 1012.1 990.9
00 15.04 С 3 20 км 9/9 600 м
[Cb cap]
-3.5 -6.8 78 -9 -9 1013.0 991.8 -3.7
03 15.04 С 4 20 км {ливн. осадки} 8/8 600 м
[Cb cap]
-2.1 -8.2 63 -8 -7 1013.5 992.3
06 15.04 З 4 20 км {ливн. осадки} 8/8 600 м
[Cb cap]
-0.5 -11.0 45 -5 -4 1013.7 992.6
09 15.04 СЗ 4 20 км 6/6 600 м
[Cb cap]
+0.5 -12.1 38 -4 -2 1013.7 992.7
12 15.04 С 3 20 км 3/3 1000 м
[Sc diur, vesp]
-0.5 -12.9 39 -4 -4 1012.9 991.9 +1.0
15 15.04 штиль 0 20 км ясно -5.2 -10.6 66 -6 -6 1012.5 991.1
18 15.04 С 1 20 км ясно -8.5 -9.9 90 -11 -11 1011.3 989.7
21 15.04 штиль 0 20 км ясно -10.4 -10.9 96 -11 -11 1010.5 988.8
00 16.04 С 1 20 км 4/0
[Ci fib]
-8.3 -10.1 87 -11 -10 1009.9 988.4 -11.5
03 16.04 СВ 2 50 км ясно -1.7 -12.7 43 -5 +3 1008.7 987.6
06 16.04 З 4 50 км 1/1 1000 м
[Cu hum]
+0.5 -13.4 34 -4 +3 1008.9 988.0
09 16.04 С 1 50 км ясно +2.1 -15.3 26 +2 +8 1009.7 988.9
12 16.04 СВ 1 50 км ясно +1.8 -15.4 27 +1 +2 1011.1 990.3 +2.7
15 16.04 штиль 0 20 км ясно -4.9 -9.5 70 -6 -6 1013.1 991.7
18 16.04 СВ 1 20 км ясно -7.9 -10.8 80 -10 -10 1014.2 992.6
21 16.04 штиль 0 20 км 3/0
[Ci sp]
-9.5 -11.0 89 -10 -10 1015.0 993.2
00 17.04 штиль 0 50 км 10/0
[Ci fib]
-7.0 -10.0 79 -8 -7 1015.3 993.7 -10.3
03 17.04 ЮЗ 1 50 км 10/0
[Ci fib]
+2.0 -7.9 48 +1 +8 1013.8 993.0
06 17.04 З 4 50 км 10/0
[Ci fib]
+7.3 -9.6 29 +5 +11 1012.2 991.8
09 17.04 З 5 50 км 10/3 1000 м
[Cu hum Ci fib]
+9.1 -9.4 26 +7 +8 1009.8 989.6
12 17.04 З 2 50 км 10/0
[Ac trans Ci fib]
+7.6 -7.2 34 +6 +7 1008.1 987.8 +9.6
15 17.04 Ю 1 20 км 10/0
[Ac trans Ci fib]
+0.3 -7.3 57 -1 -1 1007.8 987.0
18 17.04 Ю 2 20 км 10/0
[Ac trans Ci fib]
+1.9 -6.0 56 -1 -1 1005.8 985.1
21 17.04 ЮЗ 1 20 км 9/0
[Ac trans]
-0.6 -6.1 66 -2 -2 1004.0 983.2
00 18.04 Ю 1 20 км 8/0
[Ac trans Ci fib]
+0.7 -6.0 61 -1 0 1000.7 980.0 -2.2
03 18.04 Ю 4 20 км 10/0
[Ci sp]
+6.3 -4.7 45 +3 +7 995.1 975.0
06 18.04 ЮЗ 4-10
{11}
50 км в посл. час ливневой дождь 10/9 300 м
[Cb cap Ci sp]
+7.7 +1.5 65 +5 +5 990.0 970.1
09 18.04 З 9-12
{19}
50 км {ливн. осадки} 10/9 300 м
[Cb cap Ci fib]
+5.1 +1.9 80 -1 -1 992.1 972.0
12 18.04 З 10
{21}
20 км {ливн. осадки} 10/5 600 м
[Sc Ci sp]
+0.6 -7.2 56 -7 -7 999.3 979.0 +8.8 0.7
15 18.04 З 11
{19}
20 км в посл. час ливневой снег 10/10 600 м
[Cb cap]
-0.2 -10.7 45 -8 -8 1003.3 982.5
18 18.04 З 8-14
{20}
50 км {ливн. осадки} ясно -5.9 -15.9 45 -14 -14 1007.7 986.4
21 18.04 З 9-13
{19}
20 км 10/0
[Ci fib]
-8.0 -12.0 73 -18 -18 1010.4 988.8
00 19.04 З 9-13
{16}
10 км слаб. ливневой снег 10/10 300 м
[Cb cap]
-6.7 -9.6 80 -16 -16 1011.3 989.8 -8.1 0.0
03 19.04 З 10-14
{18}
4000 м слаб. ливневой снег 10/8 300 м
[Cb cap Cs]
-4.2 -7.8 76 -13 -13 1015.0 993.7
06 19.04 З 10-17
{18}
20 км в посл. час ливневой снег 10/10 600 м
[Cb cap]
-2.2 -8.3 63 -11 -11 1018.3 997.1
09 19.04 З 10-16
{18}
50 км {ливн. осадки} 6/3 600 м
[Sc diur, vesp Ac lent Ci fib]
+0.7 -15.6 28 -6 -6 1019.8 998.7
12 19.04 СЗ 7-11
{16}
50 км {ливн. осадки} ясно +0.6 -16.7 26 -5 -5 1020.4 999.4 +1.0 0.0
15 19.04 З 3
{12}
20 км 1/0
[Ac lent]
-2.6 -15.1 38 -7 -7 1021.0 999.7
18 19.04 ЮЗ 1 50 км ясно -4.9 -12.6 55 -7 -7 1020.2 998.7
21 19.04 штиль 0 50 км 1/0
[Ac trans]
-6.7 -11.7 68 -7 -7 1019.5 997.9
00 20.04 ЮВ 1 50 км 9/9 600 м
[Sc]
-3.8 -9.7 64 -6 -6 1018.0 996.6 -7.1
03 20.04 З 4 50 км 8/8 1000 м
[Sc]
+1.2 -7.6 52 -3 -2 1016.6 995.6
06 20.04 СЗ 3 50 км 4/4 600 м
[Cu hum]
+4.2 -7.4 43 +1 +7 1014.0 993.3
09 20.04 З 3 50 км 6/6 600 м
[Cu hum]
+6.6 -9.4 31 +4 +7 1011.4 991.0
12 20.04 С 1 50 км 4/3 1000 м
[Sc Ci fib]
+5.1 -10.7 31 +5 +5 1010.3 989.7 +7.0
15 20.04 В 1 20 км ясно -3.5 -9.5 63 -5 -5 1010.1 988.9
18 20.04 штиль 0 20 км 1/0
[Ci fib]
-6.1 -8.1 86 -7 -7 1009.1 987.7
21 20.04 штиль 0 20 км 9/9 600 м
[Sc]
-8.2 -9.2 92 -9 -9 1007.9 986.4

 

Местоположение метеостанции Тасеево (Красноярский край, Россия): широта 57.20 долгота 94.55 высота над уровнем моря 165 м.

В архиве по умолчанию представлена погода в Тасеево за последнюю неделю. Архивные данные за месяц целиком и за предыдущие месяцы, начиная с января 2011 года, Вы можете получить, выбрав интересующий диапазон дат из раскрывающегося списка и нажав кнопку "Ввод!".


*Определитесь, кто Вы:
робот инопланетянин человек

Внимание! Время в таблицах - всемирное. Для получения местного времени необходимо прибавить поправку, которая равна 7 ч.

Смотрите также архив погоды в соседних городах и на ближайших метеорологических станциях:

Погода в Дзержинском (Красноярский край, Россия) (56 км)
Погода в Большой Мурте (Красноярский край, Россия) (92 км)
Погода в Казачинском (Красноярский край, Россия) (93 км)
Погода в Абане (Красноярский край, Россия) (106 км)
Погода в Мотыгино (Красноярский край, Россия) (109 км)
Погода в Сухобузимском (Красноярский край, Россия) (110 км)
Погода в Солянке (Красноярский край, Россия) (123 км)
Погода в Железногорске (Красноярский край, Россия) (123 км)
Погода в Канске (Красноярский край, Россия) (129 км)
Погода в Погорельском Бору (Красноярский край, Россия) (134 км)

Пояснения к столбцам:

Ветер - указаны скорость ветра в м/с - средняя за 10 мин, порывы в срок и между сроками (в фигурных скобках) и направление, откуда дует ветер: С - северный, СВ - северо-восточный, В - восточный, ЮВ - юго-восточный, Ю - южный, ЮЗ - юго-западный, З - западный, СЗ - северо-западный.
Видимость - горизонтальная дальность видимости в метрах или километрах. При видимости от 1 до 10 км при отсутствии осадков обычно наблюдается дымка, при ухудшении видимости до 1 км и менее - туман. В сухую погоду видимость может ухудшаться дымом, пылью или мглою.
Явления - указаны атмосферные явления, наблюдавшиеся в срок или в последний час перед сроком; фигурными скобками обозначены явления, наблюдавшиеся между сроками (за 1-3 часа до срока); квадратными скобками обозначены град или гололедные отложения с указанием их диаметра в мм.
Облачность - указаны через наклонную черту общая и нижняя облачность в баллах и высота нижней границы облаков в метрах; квадратными скобками обозначены формы облаков: Ci - перистые, Cs - перисто-слоистые, Cc - перисто-кучевые, Ac - высококучевые, As - высокослоистые, Sc - слоисто-кучевые, Ns - слоисто-дождевые, Cu - кучевые, Cb - кучево-дождевые. Подробнее классификацию облаков см. в Атласе облаков (PDF).
T - Температура воздуха - температура, измеренная на высоте 2 м над землей.
Td - Температура точки росы - температура, при понижении до которой содержащийся в воздухе водяной пар достигнет насыщения.
f - Относительная влажность воздуха - влажноcть воздуха, измеренная на высоте 2 м над землей.
Te - Эффективная температура - температура, которую ощущает одетый по сезону человек в тени. Характеристика душности погоды. При расчете учитывается влияние влажности воздуха и скорости ветра на теплоощущения человека.
Tes - Эффективная температура на солнце - температура, которую ощущает человек, с поправкой на солнечный нагрев. Характеристика знойности погоды. Зависит от высоты солнца над горизонтом, облачности и скорости ветра. Ночью, в пасмурную погоду, а также при ветре 12 м/с и более поправка равна нулю.
P - Атмосферное давление - приведенное к уровню моря атмосферное давление.
Po - Атмосферное давление - измеренное на уровне метеостанции атмосферное давление.
Tmin - Минимальная температура - минимум температуры воздуха на высоте 2 м над землей.
Tmax - Максимальная температура - максимум температуры воздуха на высоте 2 м над землей.
R - Количество осадков - Количество выпавших осадков за период времени, мм. При наведении курсора мыши на число - период времени, за который выпало указанное количество осадков.
R24 - Количество осадков - Количество выпавших осадков за 24 часа, мм.
S - Снежный покров - Высота снежного покрова, см. При наведении курсора мыши на число - состояние снежного покрова и степень покрытия местности в баллах.